When you browse on this site, cookies collect data to enhance your experience and personalize the content and advertising you see.
Visit our Privacy Policy to learn more. By continuing to use the site, you agree to this use of cookies and data.
  • In United Kingdom
  • List of Countries
  • For 7 days
  • Water Temperature
  • Satellite Maps
  • Weather Map
  • Weather Widgets
  • user-avatar
    Login

    Hourly Weather Budapest

    Today, 18 April, Thursday

    Time Temperature Precipitation Wind Pressure Humidity
    00:00 +9°C° 0 mm 3 mps 759 mmHg 79%
    01:00 +9°C° 0 mm 3 mps 759 mmHg 79%
    02:00 +9°C° 0 mm 3 mps 759 mmHg 80%
    03:00 +8°C° 0 mm 3 mps 760 mmHg 82%
    04:00 +8°C° 0 mm 3 mps 760 mmHg 83%
    05:00 +9°C° 0 mm 3 mps 760 mmHg 80%
    06:00 +8°C° 0 mm 4 mps 761 mmHg 77%
    07:00 +11°C° 0 mm 4 mps 761 mmHg 72%
    08:00 +12°C° 0 mm 5 mps 761 mmHg 65%
    09:00 +14°C° 0 mm 5 mps 761 mmHg 59%
    10:00 +15°C° 0 mm 5 mps 762 mmHg 52%
    11:00 +16°C° 0 mm 5 mps 761 mmHg 50%
    12:00 +17°C° 0 mm 5 mps 761 mmHg 48%
    13:00 +19°C° 0 mm 4 mps 761 mmHg 45%
    14:00 +19°C° 0 mm 4 mps 761 mmHg 45%
    15:00 +20°C° 0 mm 4 mps 761 mmHg 44%
    16:00 +20°C° 0 mm 3 mps 761 mmHg 44%
    17:00 +18°C° 0 mm 2 mps 761 mmHg 48%
    18:00 +17°C° 0 mm 2 mps 761 mmHg 52%
    19:00 +15°C° 0 mm 1 mps 761 mmHg 57%
    20:00 +15°C° 0 mm 1 mps 762 mmHg 59%
    21:00 +14°C° 0 mm 2 mps 762 mmHg 62%
    22:00 +14°C° 0 mm 2 mps 763 mmHg 64%
    23:00 +13°C° 0 mm 2 mps 763 mmHg 65%

    Tomorrow, 19 April, Friday

    Time Temperature Precipitation Wind Pressure Humidity
    00:00 +12°C° 0 mm 2 mps 763 mmHg 65%
    01:00 +11°C° 0 mm 3 mps 763 mmHg 66%
    02:00 +10°C° 0 mm 2 mps 763 mmHg 66%
    03:00 +10°C° 0 mm 2 mps 763 mmHg 67%
    04:00 +10°C° 0 mm 2 mps 763 mmHg 67%
    05:00 +12°C° 0 mm 2 mps 763 mmHg 65%
    06:00 +13°C° 0 mm 2 mps 763 mmHg 62%
    07:00 +14°C° 0 mm 2 mps 763 mmHg 59%
    08:00 +16°C° 0 mm 3 mps 763 mmHg 53%
    09:00 +18°C° 0 mm 3 mps 763 mmHg 46%
    10:00 +19°C° 0 mm 3 mps 763 mmHg 40%
    11:00 +20°C° 0 mm 3 mps 763 mmHg 38%
    12:00 +21°C° 0 mm 3 mps 763 mmHg 36%
    13:00 +22°C° 0 mm 3 mps 763 mmHg 34%
    14:00 +21°C° 0 mm 3 mps 762 mmHg 36%
    15:00 +21°C° 0 mm 3 mps 762 mmHg 37%
    16:00 +21°C° 0 mm 2 mps 762 mmHg 38%
    17:00 +20°C° 0 mm 3 mps 762 mmHg 41%
    18:00 +18°C° 0 mm 3 mps 762 mmHg 44%
    19:00 +17°C° 0 mm 3 mps 762 mmHg 47%
    20:00 +16°C° 0 mm 3 mps 763 mmHg 48%
    21:00 +14°C° 0 mm 3 mps 763 mmHg 49%
    22:00 +13°C° 0 mm 4 mps 763 mmHg 50%
    23:00 +12°C° 0 mm 3 mps 764 mmHg 52%

    Day after tomorrow, 20 April, Saturday

    Time Temperature Precipitation Wind Pressure Humidity
    00:00 +11°C° 0 mm 3 mps 764 mmHg 53%
    01:00 +10°C° 0 mm 3 mps 764 mmHg 54%
    02:00 +9°C° 0 mm 3 mps 764 mmHg 56%
    03:00 +9°C° 0 mm 2 mps 764 mmHg 57%
    04:00 +8°C° 0 mm 2 mps 764 mmHg 59%
    05:00 +9°C° 0 mm 2 mps 764 mmHg 58%
    06:00 +10°C° 0 mm 2 mps 764 mmHg 56%
    07:00 +12°C° 0 mm 2 mps 764 mmHg 55%
    08:00 +14°C° 0 mm 2 mps 764 mmHg 49%
    09:00 +14°C° 0 mm 3 mps 764 mmHg 43%
    10:00 +17°C° 0 mm 3 mps 764 mmHg 38%
    11:00 +17°C° 0 mm 3 mps 763 mmHg 35%
    12:00 +18°C° 0 mm 3 mps 763 mmHg 33%
    13:00 +19°C° 0 mm 2 mps 763 mmHg 31%
    14:00 +19°C° 0 mm 2 mps 762 mmHg 30%
    15:00 +19°C° 0 mm 2 mps 762 mmHg 30%
    16:00 +20°C° 0 mm 1 mps 761 mmHg 29%
    17:00 +19°C° 0 mm 1 mps 761 mmHg 33%
    18:00 +16°C° 0 mm 1 mps 761 mmHg 38%
    19:00 +15°C° 0 mm 1 mps 761 mmHg 42%
    20:00 +14°C° 0 mm 1 mps 761 mmHg 45%
    21:00 +13°C° 0 mm 2 mps 761 mmHg 48%
    22:00 +12°C° 0 mm 2 mps 760 mmHg 51%
    23:00 +12°C° 0 mm 2 mps 760 mmHg 52%

    21 April, Sunday

    Time Temperature Precipitation Wind Pressure Humidity
    00:00 +10°C° 0 mm 2 mps 760 mmHg 54%
    01:00 +10°C° 0 mm 2 mps 760 mmHg 55%
    02:00 +10°C° 0 mm 2 mps 760 mmHg 56%
    03:00 +10°C° 0 mm 2 mps 759 mmHg 57%
    04:00 +9°C° 0 mm 2 mps 759 mmHg 57%
    05:00 +10°C° 0 mm 2 mps 759 mmHg 57%
    06:00 +12°C° 0 mm 2 mps 759 mmHg 57%
    07:00 +13°C° 0 mm 2 mps 759 mmHg 57%
    08:00 +15°C° 0 mm 2 mps 759 mmHg 52%
    09:00 +17°C° 0 mm 3 mps 759 mmHg 47%
    10:00 +19°C° 0 mm 3 mps 759 mmHg 42%
    11:00 +19°C° 0 mm 3 mps 758 mmHg 41%
    12:00 +19°C° 0 mm 3 mps 758 mmHg 40%
    13:00 +20°C° 0 mm 3 mps 757 mmHg 39%
    14:00 +20°C° 0 mm 3 mps 757 mmHg 39%
    15:00 +20°C° 0 mm 3 mps 756 mmHg 38%
    16:00 +20°C° 0 mm 3 mps 756 mmHg 38%
    17:00 +19°C° 0 mm 2 mps 756 mmHg 41%
    18:00 +17°C° 0 mm 2 mps 756 mmHg 44%
    19:00 +16°C° 0 mm 1 mps 756 mmHg 46%
    20:00 +15°C° 0 mm 1 mps 756 mmHg 48%
    21:00 +14°C° 0 mm 2 mps 756 mmHg 50%
    22:00 +14°C° 0 mm 2 mps 756 mmHg 52%
    23:00 +13°C° 0 mm 1 mps 756 mmHg 55%

    22 April, Monday

    Time Temperature Precipitation Wind Pressure Humidity
    00:00 +12°C° 0 mm 1 mps 756 mmHg 58%
    01:00 +12°C° 0 mm 1 mps 756 mmHg 60%
    02:00 +11°C° 0 mm 1 mps 755 mmHg 65%
    03:00 +11°C° 0 mm 1 mps 755 mmHg 69%
    04:00 +10°C° 0 mm 1 mps 755 mmHg 73%
    05:00 +11°C° 0 mm 1 mps 755 mmHg 71%
    06:00 +12°C° 0 mm 2 mps 755 mmHg 69%
    07:00 +13°C° 0 mm 2 mps 755 mmHg 67%
    08:00 +15°C° 0 mm 2 mps 755 mmHg 60%
    09:00 +17°C° 0 mm 2 mps 755 mmHg 52%
    10:00 +19°C° 0 mm 3 mps 755 mmHg 45%
    11:00 +19°C° 0 mm 3 mps 754 mmHg 43%
    12:00 +20°C° 0 mm 4 mps 754 mmHg 40%
    13:00 +21°C° 0 mm 5 mps 753 mmHg 38%
    14:00 +21°C° 0 mm 5 mps 753 mmHg 39%
    15:00 +21°C° 0 mm 5 mps 753 mmHg 39%
    16:00 +20°C° 0 mm 5 mps 752 mmHg 40%
    17:00 +19°C° 0 mm 5 mps 752 mmHg 45%
    18:00 +17°C° 0 mm 4 mps 752 mmHg 50%
    19:00 +15°C° 0 mm 4 mps 752 mmHg 56%
    20:00 +15°C° 0 mm 4 mps 752 mmHg 59%
    21:00 +14°C° 0 mm 5 mps 752 mmHg 62%
    22:00 +14°C° 0 mm 6 mps 753 mmHg 65%
    23:00 +13°C° 0 mm 6 mps 752 mmHg 64%

    23 April, Tuesday

    Time Temperature Precipitation Wind Pressure Humidity
    00:00 +13°C° 0 mm 6 mps 752 mmHg 64%
    01:00 +12°C° 0 mm 5 mps 752 mmHg 64%
    02:00 +12°C° 0 mm 5 mps 752 mmHg 64%
    03:00 +12°C° 0 mm 5 mps 752 mmHg 64%
    04:00 +12°C° 0 mm 5 mps 752 mmHg 64%
    05:00 +11°C° 0 mm 6 mps 752 mmHg 63%
    06:00 +11°C° 0 mm 7 mps 752 mmHg 63%
    07:00 +12°C° 0 mm 7 mps 753 mmHg 63%
    08:00 +11°C° 0.1 mm 8 mps 753 mmHg 65%
    09:00 +11°C° 0.1 mm 8 mps 753 mmHg 68%
    10:00 +11°C° 0.1 mm 8 mps 753 mmHg 70%
    11:00 +11°C° 0.4 mm 8 mps 753 mmHg 72%
    12:00 +11°C° 0.4 mm 8 mps 753 mmHg 74%
    13:00 +10°C° 0.4 mm 7 mps 753 mmHg 76%
    14:00 +12°C° 0.1 mm 7 mps 752 mmHg 71%
    15:00 +14°C° 0.1 mm 7 mps 752 mmHg 66%
    16:00 +15°C° 0.1 mm 7 mps 752 mmHg 61%
    17:00 +14°C° 0 mm 7 mps 752 mmHg 63%
    18:00 +14°C° 0 mm 6 mps 752 mmHg 65%
    19:00 +13°C° 0 mm 5 mps 752 mmHg 66%
    20:00 +13°C° 0.1 mm 5 mps 752 mmHg 69%
    21:00 +12°C° 0.1 mm 5 mps 752 mmHg 71%
    22:00 +12°C° 0.1 mm 5 mps 752 mmHg 74%
    23:00 +12°C° 0 mm 5 mps 752 mmHg 73%
    Show more